Regional Weather Roundup
Issued by NWS

Home | Current Version | Previous Version | Text Only | Print | Product List | Glossary On
Versions: 1 2 3 4 5 6 7 8 9 10 11 12 13 14 15 16 17 18 19 20 21 22 23 24 25 26 27 28 29 30 31 32 33 34 35 36 37 38 39 40 41 42 43 44 45 46 47 48 49 50
000
ASUS43 KMKX 011700
RWRWI

WISCONSIN REGIONAL WEATHER ROUNDUP
NATIONAL WEATHER SERVICE MILWAUKEE/SULLIVAN WI
1200 PM CDT TUE SEP 01 2015

NOTE: "FAIR" INDICATES FEW OR NO CLOUDS BELOW 12,000 FEET WITH NO
SIGNIFICANT WEATHER AND/OR OBSTRUCTIONS TO VISIBILITY.

WIZ001-002-006>008-014>016-023>028-011800-
NORTHWEST WISCONSIN

CITY           SKY/WX    TMP DP  RH WIND       PRES   REMARKS
SUPERIOR ARPT  CLOUDY    76  71  83 W5        29.90F
ASHLAND        CLOUDY    78  73  84 VRB7      29.91S HX  81
HAYWARD        PTSUNNY   80  69  69 S8        29.94S HX  83
SIREN          PTSUNNY   77  69  75 SW5       29.93S
CUMBERLAND     PTSUNNY   77  68  73 S7        29.95S
RICE LAKE      PTSUNNY   78  68  71 S5        29.95F HX  80
CHETEK         PTSUNNY  N/A N/A N/A MISG      29.95S
LADYSMITH      MOSUNNY   79  71  74 S9        29.97F HX  82
EAU CLAIRE     NOT AVBL
MENOMONIE      PTSUNNY   82  72  69 S6        29.94S HX  87
NEW RICHMOND   PTSUNNY   81  68  65 SW8       29.94S HX  84
OSCEOLA        PTSUNNY   81  70  70 SE5       29.95S HX  84
$$

WIZ003>005-009-010-017-018-011800-
NORTH CENTRAL WISCONSIN

CITY           SKY/WX    TMP DP  RH WIND       PRES   REMARKS
MANITOWISH WTR PTSUNNY   79  68  69 SW12      29.97S HX  81
ARBOR VITAE    SUNNY     80  70  72 S9        29.97F HX  83
WOODRUFF       SUNNY     80  70  72 S9        29.97F HX  83
RHINELANDER    MOSUNNY   79  69  71 SW8       29.99F HX  81
EAGLE RIVER    MOSUNNY   79  65  62 SW9       29.97F HX  81
LAND O LAKES   SUNNY     81  66  61 S9        29.97F HX  83
PHILLIPS       PTSUNNY   75  69  79 S8        29.97F
TOMAHAWK       PTSUNNY   76  69  79 SW3       29.99F
MEDFORD        MOSUNNY   78  70  74 SW6       29.98F HX  81
MERRILL        MOSUNNY   80  73  79 SW8       29.98F HX  83
$$

WIZ029-030-035-036-043>047-011800-
CENTRAL WISCONSIN

CITY           SKY/WX    TMP DP  RH WIND       PRES   REMARKS
WAUSAU         MOSUNNY   82  71  69 S10       29.96F HX  86
MOSINEE        NOT AVBL
MARSHFIELD     MOSUNNY   81  67  62 SW8       29.98F HX  83
STEVENS POINT  MOSUNNY   80  69  68 S9        29.99S HX  83
WAUPACA        SUNNY     86  73  64 S6        29.98F HX  93
WAUTOMA        NOT AVBL
WISC RAPIDS    MOSUNNY   85  68  56 VRB6      29.99F HX  88
CAMP DOUGLAS   NOT AVBL
$$

WIZ011>013-019>022-031-037>040-048>050-011800-
NORTHEAST WISCONSIN

CITY           SKY/WX    TMP DP  RH WIND       PRES   REMARKS
ANTIGO         MOSUNNY   80  71  72 S9        30.00F HX  84
SHAWANO        MOSUNNY   82  72  72 CALM      29.98F HX  87
OCONTO         SUNNY     81  75  83 S5        29.96F HX  87
STURGEON BAY   MOSUNNY   82  72  69 E8        29.99F HX  87
GREEN BAY      SUNNY     83  73  72 SW5       29.97F HAZE    HX  89
MANITOWOC      NOT AVBL
APPLETON       MOSUNNY   82  70  65 S6        29.98F HX  86
CLINTONVILLE   SUNNY     82  72  69 S8        29.98S HX  87
OSHKOSH        SUNNY     84  74  71 S8        29.98F HX  91
$$

WIZ032>034-041-042-053>061-011800-
SOUTHWEST WISCONSIN

CITY           SKY/WX    TMP DP  RH WIND       PRES   REMARKS
LA CROSSE      SUNNY     84  71  65 S13       29.94F HX  89
SPARTA         SUNNY     83  67  58 S7        29.97F HX  86
VIROQUA          N/A     82  74  77 S7        30.00S HX  87
BOSCOBEL       SUNNY    N/A N/A N/A MISG      29.97F
PRAIRIE DU CHI SUNNY     82  69  64 S6        29.97F HX  86
PLATTEVILLE    SUNNY     82  75  78 S10       30.00F HX  88
$$

WIZ056-057-062-063-064-067-068-011800-
SOUTH CENTRAL WISCONSIN

CITY           SKY/WX    TMP DP  RH WIND       PRES   REMARKS
REEDSBURG      SUNNY     83  72  68 S7        29.98F HX  89
BARABOO/DELLS  SUNNY     85  66  52 SW7       29.99F HX  87
LONE ROCK      NOT AVBL
MINERAL POINT  SUNNY     84  72  65 S9        30.01F HX  89
MADISON        MOSUNNY   85  69  58 S12       29.99F HX  89
MIDDLETON      SUNNY     87  69  54 W7        30.00F HX  90
WATERTOWN      SUNNY     84  72  68 SW7       30.01S HX  89
MONROE         SUNNY     82  72  69 S12       30.02F HX  87
JANESVILLE     SUNNY     86  72  62 S12       30.01F HX  92
$$

WIZ051-052-058>065-066-070>072-011800-
SOUTHEAST WISCONSIN

CITY           SKY/WX    TMP DP  RH WIND       PRES   REMARKS
MILWAUKEE      SUNNY     86  70  58 S10       30.01F HX  90
WAUKESHA       SUNNY     82  70  65 SW5       30.03F HX  86
MILWAUKEE/TIMM SUNNY     84  66  54 SW10      30.01F HX  86
RACINE         SUNNY     86  72  62 SE10      30.03F HX  92
BURLINGTON     SUNNY     83  70  64 S3        30.02F HX  87
KENOSHA        SUNNY     86  72  62 S7        30.03F HX  92
FOND DU LAC    SUNNY     83  73  72 SW9       29.99F HX  89
SHEBOYGAN      SUNNY     85  74  69 SW12      29.99F HX  92
WEST BEND      MOSUNNY   84  70  61 SW3       30.01F HX  88
JUNEAU         SUNNY     82  72  73 S8        30.02F HX  86
$$

LSZ147-162-011800-
LAKE SUPERIOR

STATION/POSITION TIME  TEMP    WIND        PRES    WAVE
                       AIR SEA DIR/SP/G            HT/PER
                 (UTC) (F)     (DEG/KT/KT) (MB)    (FT/S)
W MID LAKE BUOY  1550   58 55  250/  4/  4 1012.3R   1
DEVILS ISLAND    1600   65     250/  9/ 10 1012.3R
PORT WING        1600   68     280/  8/  8 1012.9R
SAXON HARBOR     1600   79     210/  6/  9 1012.2S
$$

LMZ867-665-643>646-011800-
LAKE MICHIGAN

STATION/POSITION TIME  TEMP    WIND        PRES    WAVE
                       AIR SEA DIR/SP/G            HT/PER
                 (UTC) (F)     (DEG/KT/KT) (MB)    (FT/S)
CHAMBERS ISLAND  1600   74     170/  4/  8 1015.2S
S GREEN BAY BUOY 1630   72 65  220/  6/  6 1016.6S
N MID LAKE BUOY  1550   67 65  190/ 12/ 14 1015.2S   2/ 4
NORTHPORT PIER   1600   69     150/  7/ 10 1015.2S
SISTER BAY       1619   80     180/  8/  9   N/A
ALGOMA LAKESHORE 1514             CALM       N/A
KEWAUNEE LAKESHO 1600   52     160/  9/ 10 1014.7F
SHEBOYGAN LAKESH 1600   68     170/ 16/ 17 1016.0F
PORT WASHINGTON  1600   66     170/  3/  4 1016.9F
ATWATER BUOY     1600   60 54  170/  8/  8 1017.8F
MILWAUKEE LAKESH 1610   67     130/  4/  5   N/A
S MID LAKE BUOY  1550   71 70  180/ 12/ 14 1017.1F   1
KENOSHA   LAKESH 1600   69     180/ 12/ 13 1016.6F
$$

TC  - TEMPERATURE IN CELSIUS
VSB - VISIBILITY IN STATUTE MILES
WCI - WIND CHILL INDEX
HX  - HEAT INDEX



USA.gov is the U.S. government's official web portal to all federal, state and local government web resources and services.